ABX505 KPHX-KLAX

Flight info

Callsign ABX505
Flight time 0h 57m
Altitude 32000
Route KEENS3 WLVRN ESTWD HLYWD1
Aircraft B763/H-SDE3FGHIM3RWXY/LB1

Departure

Time 2026-04-25 20:52
Airport Phoenix Sky Harbor International Airport (KPHX)

Arrival

Time 2026-04-25 21:50
Airport Los Angeles International Airport (KLAX)
Time Latitude Longitude Altitude Speed Heading
2026-04-25 20:24 33.43296 -112.02889 1123 ft 0 kts 270°
2026-04-25 20:42 33.43296 -112.02880 1123 ft 2 kts 267°
2026-04-25 20:42 33.43299 -112.02863 1123 ft 2 kts 248°
2026-04-25 20:42 33.43306 -112.02847 1123 ft 2 kts 230°
2026-04-25 20:43 33.43316 -112.02835 1123 ft 2 kts 212°
2026-04-25 20:43 33.43330 -112.02827 1123 ft 2 kts 194°
2026-04-25 20:43 33.43341 -112.02825 1123 ft 0 kts 180°
2026-04-25 20:43 33.43346 -112.02825 1123 ft 0 kts 179°
2026-04-25 20:45 33.43339 -112.02825 1123 ft 4 kts 181°
2026-04-25 20:45 33.43284 -112.02827 1123 ft 10 kts 180°
2026-04-25 20:45 33.43224 -112.02795 1123 ft 10 kts 118°
2026-04-25 20:46 33.43217 -112.02689 1123 ft 16 kts 90°
2026-04-25 20:46 33.43216 -112.02535 1126 ft 19 kts 90°
2026-04-25 20:46 33.43217 -112.02367 1126 ft 21 kts 90°
2026-04-25 20:46 33.43216 -112.02183 1126 ft 23 kts 90°
2026-04-25 20:47 33.43216 -112.01984 1126 ft 24 kts 90°
2026-04-25 20:47 33.43216 -112.01778 1129 ft 25 kts 90°
2026-04-25 20:47 33.43216 -112.01566 1131 ft 25 kts 90°
2026-04-25 20:47 33.43216 -112.01347 1132 ft 26 kts 90°
2026-04-25 20:48 33.43216 -112.01129 1135 ft 26 kts 90°
2026-04-25 20:48 33.43215 -112.00906 1135 ft 26 kts 90°
2026-04-25 20:48 33.43215 -112.00684 1135 ft 26 kts 90°
2026-04-25 20:48 33.43215 -112.00464 1134 ft 26 kts 90°
2026-04-25 20:49 33.43215 -112.00234 1132 ft 27 kts 90°
2026-04-25 20:49 33.43215 -112.00011 1132 ft 26 kts 90°
2026-04-25 20:49 33.43214 -111.99786 1131 ft 26 kts 90°
2026-04-25 20:49 33.43214 -111.99565 1131 ft 23 kts 90°
2026-04-25 20:50 33.43214 -111.99407 1133 ft 12 kts 90°
2026-04-25 20:50 33.43193 -111.99356 1134 ft 6 kts 150°
2026-04-25 20:50 33.43139 -111.99349 1134 ft 9 kts 191°
2026-04-25 20:50 33.43105 -111.99412 1133 ft 10 kts 264°
2026-04-25 20:51 33.43104 -111.99432 1133 ft 0 kts 269°
2026-04-25 20:51 33.43104 -111.99487 1133 ft 22 kts 269°
2026-04-25 20:51 33.43105 -111.99930 1131 ft 83 kts 270°
2026-04-25 20:51 33.43103 -112.00856 1134 ft 137 kts 270°
2026-04-25 20:52 33.43105 -112.02187 1252 ft 175 kts 269°
2026-04-25 20:52 33.43099 -112.03183 1613 ft 184 kts 268°
2026-04-25 20:52 33.43047 -112.05297 2418 ft 202 kts 267°
2026-04-25 20:52 33.42862 -112.07047 2917 ft 222 kts 251°
2026-04-25 20:53 33.42331 -112.08845 3599 ft 238 kts 250°
2026-04-25 20:53 33.41769 -112.10763 4300 ft 254 kts 250°
2026-04-25 20:53 33.41160 -112.12785 5183 ft 263 kts 249°
2026-04-25 20:53 33.40535 -112.14835 6200 ft 267 kts 249°
2026-04-25 20:54 33.39898 -112.16910 7236 ft 269 kts 249°
2026-04-25 20:54 33.39309 -112.19007 8254 ft 272 kts 258°
2026-04-25 20:54 33.39344 -112.21281 9239 ft 278 kts 277°
2026-04-25 20:54 33.39673 -112.23541 10223 ft 281 kts 276°
2026-04-25 20:55 33.39991 -112.25851 10956 ft 293 kts 276°
2026-04-25 20:55 33.40345 -112.28313 11591 ft 309 kts 276°
2026-04-25 20:55 33.40725 -112.30923 12242 ft 326 kts 276°
2026-04-25 20:55 33.41175 -112.33991 12980 ft 344 kts 276°
2026-04-25 20:56 33.41598 -112.36847 13867 ft 352 kts 276°
2026-04-25 20:56 33.42023 -112.39716 14934 ft 354 kts 276°
2026-04-25 20:56 33.42450 -112.42599 15949 ft 357 kts 276°
2026-04-25 20:56 33.42883 -112.45538 16920 ft 360 kts 276°
2026-04-25 20:57 33.43314 -112.48463 17850 ft 362 kts 276°
2026-04-25 20:57 33.43753 -112.51457 18731 ft 366 kts 276°
2026-04-25 20:57 33.44191 -112.54446 19551 ft 370 kts 276°
2026-04-25 20:57 33.44638 -112.57502 20304 ft 375 kts 276°
2026-04-25 20:58 33.44995 -112.60572 21094 ft 375 kts 270°
2026-04-25 20:58 33.45037 -112.63670 21841 ft 377 kts 268°
2026-04-25 20:58 33.45095 -112.66846 22591 ft 381 kts 268°
2026-04-25 20:58 33.45137 -112.69976 23377 ft 384 kts 268°
2026-04-25 20:59 33.45185 -112.73212 24117 ft 388 kts 268°
2026-04-25 20:59 33.45227 -112.76425 24859 ft 390 kts 269°
2026-04-25 20:59 33.45512 -112.79649 25557 ft 397 kts 277°
2026-04-25 20:59 33.46331 -112.82873 26226 ft 406 kts 286°
2026-04-25 21:00 33.47432 -112.85999 26801 ft 411 kts 287°
2026-04-25 21:00 33.47783 -112.87032 27004 ft 411 kts 287°
2026-04-25 21:00 33.50746 -112.95550 28628 ft 420 kts 286°
2026-04-25 21:01 33.51871 -112.98779 29311 ft 421 kts 286°
2026-04-25 21:01 33.52996 -113.02003 29995 ft 421 kts 286°
2026-04-25 21:01 33.54122 -113.05225 30913 ft 415 kts 285°
2026-04-25 21:01 33.55218 -113.08366 31708 ft 409 kts 285°
2026-04-25 21:02 33.56310 -113.11507 31836 ft 409 kts 285°
2026-04-25 21:02 33.58479 -113.17750 31852 ft 403 kts 285°
2026-04-25 21:03 33.60639 -113.23982 31860 ft 402 kts 285°
2026-04-25 21:03 33.62782 -113.30173 31872 ft 405 kts 285°
2026-04-25 21:04 33.64941 -113.36419 31878 ft 404 kts 285°
2026-04-25 21:04 33.67086 -113.42638 31878 ft 404 kts 285°
2026-04-25 21:05 33.69240 -113.48899 31873 ft 407 kts 286°
2026-04-25 21:05 33.71393 -113.55163 31875 ft 407 kts 285°
2026-04-25 21:06 33.73547 -113.61445 31873 ft 408 kts 286°
2026-04-25 21:06 33.75703 -113.67745 31875 ft 408 kts 285°
2026-04-25 21:07 33.77856 -113.74045 31853 ft 409 kts 285°
2026-04-25 21:07 33.80017 -113.80386 31840 ft 410 kts 286°
2026-04-25 21:08 33.82169 -113.86706 31830 ft 410 kts 286°
2026-04-25 21:08 33.84321 -113.93037 31837 ft 411 kts 286°
2026-04-25 21:09 33.87574 -114.02631 31842 ft 412 kts 286°
2026-04-25 21:09 33.89733 -114.09012 31832 ft 411 kts 286°
2026-04-25 21:10 33.91204 -114.15562 31828 ft 405 kts 277°
2026-04-25 21:10 33.92350 -114.22184 31818 ft 406 kts 277°
2026-04-25 21:11 33.93478 -114.28785 31800 ft 404 kts 277°
2026-04-25 21:11 33.94604 -114.35432 31798 ft 406 kts 277°
2026-04-25 21:12 33.95728 -114.42094 31803 ft 406 kts 277°
2026-04-25 21:12 33.96663 -114.47653 31795 ft 405 kts 277°
2026-04-25 21:13 33.97961 -114.55411 31796 ft 406 kts 277°
2026-04-25 21:13 33.99079 -114.62123 31783 ft 407 kts 276°
2026-04-25 21:14 34.00187 -114.68797 31800 ft 407 kts 276°
2026-04-25 21:14 34.01300 -114.75518 31797 ft 407 kts 276°
2026-04-25 21:15 34.02405 -114.82217 31800 ft 406 kts 276°
2026-04-25 21:15 34.03500 -114.88882 31807 ft 408 kts 276°
2026-04-25 21:16 34.04591 -114.95535 31808 ft 406 kts 276°
2026-04-25 21:16 34.05685 -115.02252 31808 ft 408 kts 276°
2026-04-25 21:17 34.06776 -115.08935 31804 ft 407 kts 276°
2026-04-25 21:17 34.07861 -115.15613 31808 ft 406 kts 276°
2026-04-25 21:18 34.08943 -115.22293 31804 ft 407 kts 276°
2026-04-25 21:18 34.10029 -115.29026 31804 ft 407 kts 276°
2026-04-25 21:19 34.11106 -115.35724 31805 ft 407 kts 276°
2026-04-25 21:19 34.12175 -115.42397 31816 ft 406 kts 276°
2026-04-25 21:20 34.13071 -115.48018 31817 ft 408 kts 276°
2026-04-25 21:20 34.14312 -115.55811 31831 ft 407 kts 276°
2026-04-25 21:21 34.15376 -115.62531 31838 ft 408 kts 276°
2026-04-25 21:21 34.16155 -115.69267 31860 ft 402 kts 265°
2026-04-25 21:22 34.15649 -115.75948 31859 ft 399 kts 261°
2026-04-25 21:22 34.15054 -115.82495 31867 ft 386 kts 260°
2026-04-25 21:23 34.14450 -115.88866 31871 ft 383 kts 259°
2026-04-25 21:23 34.13829 -115.95270 31749 ft 390 kts 260°
2026-04-25 21:24 34.13510 -115.98543 31418 ft 394 kts 260°
2026-04-25 21:24 34.13190 -116.01831 30937 ft 395 kts 260°
2026-04-25 21:24 34.12866 -116.05153 30485 ft 393 kts 261°
2026-04-25 21:24 34.12546 -116.08421 30040 ft 391 kts 260°
2026-04-25 21:25 34.12230 -116.11647 29606 ft 392 kts 260°
2026-04-25 21:25 34.11904 -116.14940 29156 ft 395 kts 260°
2026-04-25 21:25 34.11578 -116.18233 28723 ft 394 kts 260°
2026-04-25 21:25 34.11257 -116.21484 28299 ft 391 kts 260°
2026-04-25 21:26 34.10932 -116.24747 27844 ft 388 kts 260°
2026-04-25 21:26 34.10616 -116.27925 27423 ft 384 kts 260°
2026-04-25 21:26 34.10292 -116.31111 27010 ft 382 kts 259°
2026-04-25 21:26 34.09953 -116.34273 26596 ft 382 kts 260°
2026-04-25 21:27 34.09611 -116.37481 26185 ft 382 kts 260°
2026-04-25 21:27 34.09273 -116.40644 25765 ft 382 kts 259°
2026-04-25 21:27 34.08935 -116.43801 25350 ft 380 kts 259°
2026-04-25 21:27 34.08595 -116.46963 24959 ft 378 kts 260°
2026-04-25 21:28 34.08259 -116.50080 24593 ft 376 kts 260°
2026-04-25 21:28 34.07925 -116.53185 24275 ft 376 kts 259°
2026-04-25 21:28 34.07583 -116.56339 23801 ft 380 kts 260°
2026-04-25 21:28 34.07252 -116.59472 23706 ft 365 kts 260°
2026-04-25 21:29 34.06976 -116.62489 23310 ft 363 kts 261°
2026-04-25 21:29 34.06696 -116.65509 22871 ft 359 kts 260°
2026-04-25 21:29 34.06424 -116.68446 22453 ft 354 kts 260°
2026-04-25 21:29 34.06151 -116.71386 22040 ft 350 kts 260°
2026-04-25 21:30 34.05880 -116.74297 21755 ft 345 kts 260°
2026-04-25 21:30 34.05616 -116.77129 21765 ft 337 kts 260°
2026-04-25 21:30 34.05348 -116.79974 21504 ft 358 kts 260°
2026-04-25 21:30 34.05156 -116.81994 21006 ft 366 kts 261°
2026-04-25 21:31 34.04792 -116.85908 20797 ft 343 kts 260°
2026-04-25 21:31 34.04523 -116.88730 20091 ft 340 kts 259°
2026-04-25 21:31 34.04172 -116.91511 19467 ft 333 kts 258°
2026-04-25 21:31 34.03814 -116.94257 19007 ft 333 kts 258°
2026-04-25 21:32 34.03456 -116.97012 18573 ft 330 kts 258°
2026-04-25 21:32 34.03105 -116.99713 18163 ft 325 kts 258°
2026-04-25 21:32 34.02752 -117.02426 17840 ft 325 kts 258°
2026-04-25 21:32 34.02423 -117.05122 17494 ft 326 kts 259°
2026-04-25 21:33 34.02108 -117.07809 17110 ft 322 kts 259°
2026-04-25 21:33 34.01794 -117.10452 16745 ft 322 kts 259°
2026-04-25 21:33 34.01477 -117.13126 16377 ft 319 kts 259°
2026-04-25 21:33 34.01168 -117.15732 16021 ft 316 kts 259°
2026-04-25 21:34 34.00855 -117.18359 15664 ft 316 kts 258°
2026-04-25 21:34 34.00545 -117.20962 15297 ft 313 kts 259°
2026-04-25 21:34 34.00238 -117.23522 14964 ft 311 kts 259°
2026-04-25 21:34 33.99928 -117.26112 14598 ft 311 kts 259°
2026-04-25 21:35 33.99616 -117.28706 14238 ft 308 kts 259°
2026-04-25 21:35 33.99315 -117.31222 13901 ft 308 kts 259°
2026-04-25 21:35 33.99015 -117.33781 13524 ft 305 kts 259°
2026-04-25 21:35 33.98719 -117.36314 13157 ft 305 kts 259°
2026-04-25 21:36 33.98419 -117.38858 12787 ft 304 kts 259°
2026-04-25 21:36 33.98122 -117.41372 12429 ft 306 kts 260°
2026-04-25 21:36 33.97824 -117.43896 12035 ft 305 kts 260°
2026-04-25 21:36 33.97526 -117.46417 11700 ft 305 kts 260°
2026-04-25 21:37 33.97364 -117.48944 11237 ft 306 kts 271°
2026-04-25 21:37 33.97592 -117.50646 11036 ft 303 kts 279°
2026-04-25 21:37 33.98169 -117.53934 10785 ft 299 kts 278°
2026-04-25 21:37 33.98596 -117.56381 10546 ft 296 kts 278°
2026-04-25 21:38 33.99019 -117.58802 10314 ft 297 kts 279°
2026-04-25 21:38 33.99443 -117.61208 10012 ft 292 kts 279°
2026-04-25 21:38 33.99857 -117.63552 9949 ft 278 kts 278°
2026-04-25 21:38 34.00251 -117.65775 9957 ft 266 kts 278°
2026-04-25 21:39 34.00586 -117.67940 9961 ft 259 kts 269°
2026-04-25 21:39 34.00470 -117.70081 9853 ft 260 kts 261°
2026-04-25 21:39 34.00270 -117.72252 9659 ft 259 kts 262°
2026-04-25 21:39 34.00081 -117.74397 9449 ft 254 kts 262°
2026-04-25 21:40 33.99897 -117.76492 9248 ft 249 kts 262°
2026-04-25 21:40 33.99719 -117.78538 9056 ft 244 kts 262°
2026-04-25 21:40 33.99523 -117.80560 8836 ft 241 kts 261°
2026-04-25 21:40 33.99325 -117.82555 8604 ft 238 kts 261°
2026-04-25 21:41 33.99131 -117.84518 8371 ft 236 kts 261°
2026-04-25 21:41 33.98939 -117.86468 8131 ft 234 kts 261°
2026-04-25 21:41 33.98749 -117.88399 7881 ft 233 kts 262°
2026-04-25 21:41 33.98558 -117.90340 7626 ft 232 kts 262°
2026-04-25 21:42 33.98366 -117.92289 7367 ft 232 kts 261°
2026-04-25 21:42 33.98175 -117.94220 7105 ft 232 kts 262°
2026-04-25 21:42 33.97986 -117.96137 6833 ft 233 kts 262°
2026-04-25 21:42 33.97795 -117.98074 6580 ft 232 kts 262°
2026-04-25 21:43 33.97606 -117.99991 6357 ft 228 kts 262°
2026-04-25 21:43 33.97419 -118.01880 6059 ft 226 kts 262°
2026-04-25 21:43 33.97234 -118.03745 5742 ft 223 kts 262°
2026-04-25 21:43 33.97052 -118.05576 5447 ft 219 kts 262°
2026-04-25 21:44 33.96872 -118.07380 5154 ft 215 kts 262°
2026-04-25 21:44 33.96694 -118.09165 4866 ft 212 kts 262°
2026-04-25 21:44 33.96350 -118.12597 4322 ft 199 kts 262°
2026-04-25 21:45 33.96190 -118.14205 4080 ft 188 kts 262°
2026-04-25 21:45 33.96085 -118.15249 3902 ft 185 kts 262°
2026-04-25 21:45 33.95881 -118.17270 3552 ft 178 kts 262°
2026-04-25 21:45 33.95734 -118.18723 3293 ft 171 kts 262°
2026-04-25 21:46 33.95593 -118.20130 3078 ft 170 kts 261°
2026-04-25 21:46 33.95449 -118.21544 2878 ft 173 kts 262°
2026-04-25 21:46 33.95303 -118.22980 2647 ft 174 kts 261°
2026-04-25 21:46 33.95155 -118.24436 2397 ft 172 kts 261°
2026-04-25 21:47 33.95013 -118.25849 2158 ft 164 kts 260°
2026-04-25 21:47 33.94884 -118.27131 1947 ft 145 kts 260°
2026-04-25 21:47 33.94765 -118.28301 1731 ft 139 kts 259°
2026-04-25 21:47 33.94645 -118.29456 1548 ft 140 kts 260°
2026-04-25 21:48 33.94525 -118.30617 1372 ft 141 kts 261°
2026-04-25 21:48 33.94405 -118.31799 1188 ft 140 kts 259°
2026-04-25 21:48 33.94288 -118.32961 987 ft 139 kts 260°
2026-04-25 21:48 33.94179 -118.34117 816 ft 139 kts 260°
2026-04-25 21:49 33.94064 -118.35274 629 ft 138 kts 260°
2026-04-25 21:49 33.93941 -118.36427 453 ft 138 kts 258°
2026-04-25 21:49 33.93815 -118.37545 265 ft 134 kts 259°
2026-04-25 21:49 33.93698 -118.38670 108 ft 130 kts 260°
2026-04-25 21:50 33.93610 -118.39508 114 ft 69 kts 263°
2026-04-25 21:50 33.93556 -118.39993 120 ft 36 kts 257°
2026-04-25 21:50 33.93501 -118.40177 123 ft 7 kts 240°
2026-04-25 21:50 33.93481 -118.40216 123 ft 8 kts 237°
2026-04-25 21:51 33.93435 -118.40297 123 ft 8 kts 234°
2026-04-25 21:51 33.93404 -118.40360 124 ft 8 kts 238°
2026-04-25 21:51 33.93360 -118.40385 124 ft 7 kts 176°
2026-04-25 21:51 33.93317 -118.40379 123 ft 4 kts 173°
2026-04-25 21:52 33.93307 -118.40377 123 ft 0 kts 173°